Location: New Frontier Mobile Home Park
(32.8448°N, 116.9675°W)
Time: 22:16:06
(UTC+00:00)

Cosmos 1892 - Pass Details

Date: 14 July 2020
Orbit: 505 x 523 km, 82.5° (Epoch: 05 August)

Event Time Altitude Azimuth Distance (km) Brightness Sun altitude
Exits shadow 04:31:30 28° 84° (E) 982 3.7 -17.2°
Drops below altitude 10° 04:34:33 10° 31° (NNE) 1,736 5.5 -17.7°
Sets 04:36:53 0° 20° (NNE) 2,630 6.6 -18.1°
